[keps] orb08206.2l.amsat
Ray Hoad
r.hoad at att.net
Thu Jul 24 20:09:33 PDT 2008
SB KEPS @ AMSAT $ORB08206.N
2Line Orbital Elements 08206.AMSAT
HR AMSAT ORBITAL ELEMENTS FOR AMATEUR SATELLITES IN NASA FORMAT
FROM WA5QGD FORT WORTH,TX July 24, 2008
Send Subscribe/unsubscribe to KEPS at
http://www.amsat.org/mailman/listinfo/keps
BID: ORB08206.N
DECODE 2-LINE ELSETS WITH THE FOLLOWING KEY:
1 AAAAAU 00 0 0 BBBBB.BBBBBBBB .CCCCCCCC 00000-0 00000-0 0 DDDZ
2 AAAAA EEE.EEEE FFF.FFFF GGGGGGG HHH.HHHH III.IIII JJ.JJJJJJJJKKKKKZ
KEY: A-CATALOGNUM B-EPOCHTIME C-DECAY D-ELSETNUM E-INCLINATION F-RAAN
G-ECCENTRICITY H-ARGPERIGEE I-MNANOM J-MNMOTION K-ORBITNUM Z-CHECKSUM
TO ALL RADIO AMATEURS BT
AO-07
1 07530U 74089B 08205.60553782 -.00000027 00000-0 10000-3 0 2340
2 07530 101.4631 235.8812 0011857 189.7460 170.3386 12.53573815541546
AO-10
1 14129U 83058B 08205.15414315 .00000056 00000-0 10000-3 0 05340
2 14129 026.0038 204.1976 5975098 142.4911 280.0106 02.05869161188846
UO-11
1 14781U 84021B 08206.58188530 .00000696 00000-0 10000-3 0 7274
2 14781 098.1518 241.1703 0008574 319.5732 040.4771 14.79657993309383
RS-15
1 23439U 94085A 08205.90953277 -.00000039 00000-0 10000-3 0 01511
2 23439 064.8153 075.6674 0147172 115.7122 245.9077 11.27552294559108
FO-29
1 24278U 96046B 08206.54258989 -.00000005 00000-0 28449-4 0 8215
2 24278 098.5853 117.9441 0351269 118.8172 244.8719 13.52938406589440
SO-33
1 25509U 98061B 08206.79553737 .00000042 00000-0 -30484-5 0 2485
2 25509 031.4337 103.6995 0354743 355.9448 003.8330 14.28217072508993
AO-40
1 26609U 00072B 08203.04343986 -.00000201 00000-0 10000-3 0 946
2 26609 007.6232 071.1288 7921784 103.6197 345.9112 01.25585283 35469
VO-52
1 28650U 05017B 08205.60849074 -.00000011 00000-0 52002-5 0 9871
2 28650 097.7869 271.2165 0027647 024.4857 335.7522 14.81483359173991
PO-63
1 29712U 07001D 08206.74180829 .00000410 00000-0 60643-4 0 6461
2 29712 097.8735 264.2209 0012863 259.6390 100.3385 14.80219655 83025
AO-16
1 20439U 90005D 08205.54958809 -.00000014 00000-0 10171-4 0 03764
2 20439 098.2315 183.7565 0011962 069.6963 290.5507 14.31798612966125
LO-19
1 20442U 90005G 08205.59086980 -.00000026 00000-0 55252-5 0 03027
2 20442 098.2019 192.2220 0012929 067.5186 292.7356 14.32036837966289
AO-27
1 22825U 93061C 08205.60452323 .00000018 00000-0 23478-4 0 233
2 22825 098.3862 164.2647 0008769 147.6245 212.5456 14.29243241772975
IO-26
1 22826U 93061D 08206.84215316 -.00000019 00000-0 88330-5 0 7306
2 22826 098.3789 166.3485 0009326 140.8705 219.3160 14.29492364773243
PO-28
1 22829U 93061G 08206.25055076 .00000217 00000-0 10000-3 0 9970
2 22829 098.3678 166.8776 0010721 117.0274 243.2035 14.30194473773428
GO-32
1 25397U 98043D 08206.65450152 -.00000099 00000-0 -25807-4 0 6548
2 25397 098.3612 239.9629 0002204 115.0510 245.0896 14.23145767521549
NO-44
1 26931U 01043C 08205.45710849 .00000058 00000-0 55003-4 0 09352
2 26931 067.0512 191.2185 0007315 269.3633 090.6622 14.29529182355594
SO-50
1 27607U 02058C 08206.32066557 -.00000035 00000-0 16847-4 0 6599
2 27607 064.5610 300.8658 0086271 272.2070 086.9165 14.71369361300436
CO-55
1 27844U 03031E 08205.99155813 .00000020 00000-0 29843-4 0 3578
2 27844 098.7151 213.7456 0010539 015.7503 344.4012 14.20588888262667
CO-57
1 27848U 03031J 08206.55814194 .00000039 00000-0 38794-4 0 3080
2 27848 098.7161 213.3940 0010505 016.8340 343.3212 14.20397816262715
AO-51
1 28375U 04025K 08206.69375311 -.00000006 00000-0 10782-4 0 1561
2 28375 098.0691 229.1516 0085281 039.2447 321.4884 14.40613940213805
CO-56
1 28941U 06005C 08206.83791568 .00014105 26379-5 10585-3 0 2345
2 28941 098.1096 322.7504 0160224 263.9088 094.3874 15.58357039135902
CP4
1 31122U 07012F 08206.15645384 .00000550 00000-0 13192-3 0 3949
2 31122 098.0418 270.3776 0085087 213.0049 146.5834 14.55145118 67458
CP3
1 31128U 07012M 08206.89275740 -.00000048 00000-0 00000 0 0 3887
2 31128 098.0346 268.7340 0102170 217.4964 141.9063 14.51961686 67409
NOAA-10
1 16969U 86073A 08206.51742263 .00000124 00000-0 68551-4 0 2170
2 16969 098.7213 228.4101 0013288 073.7611 286.5046 14.27365106136767
NOAA-11
1 19531U 88089A 08206.15276406 .00000292 00000-0 17363-3 0 2471
2 19531 098.7987 294.9636 0011224 326.8083 033.2379 14.14874849 23134
NOAA-12
1 21263U 91032A 08206.68266582 .00000011 00000-0 23733-4 0 7653
2 21263 098.7670 208.6306 0013030 021.0229 339.1483 14.25539613893731
MET-3/5
1 21655U 91056A 08205.96228591 .00000051 00000-0 10000-3 0 04778
2 21655 082.5538 078.4059 0012411 285.3382 074.6368 13.17016457814423
MET-2/21
1 22782U 93055A 08205.65577829 .00000054 00000-0 35076-4 0 02051
2 22782 082.5457 082.6502 0022151 184.1476 175.9507 13.83630891752177
OKEAN-4
1 23317U 94066A 08206.51368844 .00000175 00000-0 18665-4 0 6480
2 23317 082.5396 280.2414 0022513 009.0475 351.1167 14.82624926743811
NOAA-14
1 23455U 94089A 08206.20859410 -.00000211 00000-0 -87628-4 0 2358
2 23455 098.9446 278.4709 0009943 045.0506 315.1501 14.13744154699580
SICH-1
1 23657U 95046A 08205.82026030 .00000097 00000-0 92883-5 0 04483
2 23657 082.5259 061.8789 0024361 003.8886 356.2508 14.81593134695642
NOAA-15
1 25338U 98030A 08206.15772828 .00000095 00000-0 59412-4 0 5543
2 25338 098.5558 197.0787 0009715 297.8636 062.1604 14.24716242530061
RESURS
1 25394U 98043A 08205.92347138 .00000017 00000-0 25313-4 0 09973
2 25394 098.3826 248.2040 0002424 083.1776 276.9680 14.24165586521676
FENGYUN1
1 25730U 99025A 08206.51495649 .00000251 00000-0 17321-3 0 5273
2 25730 098.7218 181.0342 0022652 064.3824 295.9679 14.07730144474213
OKEAN-0
1 25860U 99039A 08206.53251836 -.00000009 00000-0 57794-5 0 4262
2 25860 097.7515 195.4302 0001495 098.5211 261.6170 14.73529499484895
NOAA-16
1 26536U 00055A 08206.18368191 .00000069 00000-0 62529-4 0 247
2 26536 099.1572 196.1728 0011337 119.0850 241.1517 14.12490273403999
NOAA-17
1 27453U 02032A 08206.22274123 .00000162 00000-0 88872-4 0 196
2 27453 098.5316 269.7738 0011764 005.8331 354.3022 14.23990363316072
NOAA-18
1 28654U 05018A 08206.20564711 -.00000163 00000-0 -65915-4 0 5157
2 28654 098.8686 146.6831 0013625 206.1591 153.8900 14.11177879163699
HUBBLE
1 20580U 90037B 08205.92892412 .00000254 00000-0 67618-5 0 01914
2 20580 028.4676 083.5819 0003472 056.2097 303.8826 15.00394029800505
PO-34
1 25520U 98064B 08206.55922470 .00000388 00000-0 93189-5 0 435
2 25520 028.4601 288.5730 0005140 330.5538 029.4772 15.17212734538849
ISS
1 25544U 98067A 08206.64825231 -.00006764 00000-0 -44576-4 0 9217
2 25544 051.6441 183.7417 0009508 348.9882 345.6594 15.72647713554427
CO-58
1 28895U 05043F 08206.41098133 .00000077 00000-0 25797-4 0 774
2 28895 098.0930 099.5308 0016875 295.1459 064.7982 14.59684714145914
NCUBE2
1 28897U 05043H 08206.64531386 .00000083 00000-0 26913-4 0 6081
2 28897 098.0916 099.6873 0016425 296.3536 063.5986 14.59856541138235
FCAL
1 29667U 06055J 08146.34060426 .11864717 12752-4 73624-4 0 9790
2 29667 051.6107 065.3702 0009039 260.8350 099.5042 16.53464210 82911
FALCON
1 30776U 07006E 08205.57780886 .00000193 00000-0 17108-4 0 03774
2 30776 035.4349 292.7875 0002076 322.8256 037.2316 15.03022831075623
MAST
1 31126U 07012K 08206.21008670 .00000172 00000-0 49791-4 0 3823
2 31126 098.0357 269.1627 0094116 216.5860 142.8917 14.53436814 67395
CAPE1
1 31130U 07012P 08206.88713016 .00000070 00000-0 27200-4 0 3613
2 31130 098.0368 268.7344 0102143 217.3952 142.0098 14.51978528 67195
CUTE1-7
1 32785U 08021C 08205.39167058 .00000075 00000-0 16521-4 0 01140
2 32785 097.9926 265.2221 0015595 022.8456 337.3461 14.81377216012764
COMPASS
1 32787U 08021E 08206.80702673 .00000376 00000-0 54779-4 0 1014
2 32787 097.9875 266.5904 0016284 019.9212 340.2636 14.81438471 12975
AAUSAT2
1 32788U 08021F 08206.53047195 .00000431 00000-0 61697-4 0 1015
2 32788 097.9874 266.3269 0016315 023.4283 336.7684 14.81547904 12931
DO-64
1 32789U 08021G 08206.80799642 .00000379 00000-0 55211-4 0 1103
2 32789 097.9901 266.6211 0016266 019.4263 340.7565 14.81435468 12979
SEEDS
1 32791U 08021J 08205.39676872 .00000132 00000-0 23789-4 0 01065
2 32791 097.9891 265.1971 0016913 021.5871 338.6062 14.81294363012734
CANX-2
1 32797U 08021L 08205.10275194 .00001534 00000-0 20042-3 0 00527
2 32797 097.9951 264.9878 0017301 031.7907 328.4306 14.81861567011402
RS-30
1 32953U 08025A 08205.71086324 .00000010 00000-0 00000-0 0 00658
2 32953 082.5014 100.8813 0018347 171.9573 188.1798 12.42996662007580
/EX
More information about the Keps
mailing list